Regional Weather Roundup
Issued by NWS

Home | Current Version | Previous Version | Graphics & Text | Print | Product List | Glossary On
Versions: 1 2 3 4 5 6 7 8 9 10 11 12 13 14 15 16 17 18 19 20 21 22 23 24 25 26 27 28 29 30 31 32 33 34 35 36 37 38 39 40 41 42 43 44 45 46 47 48 49 50
000
ASUS45 KTFX 181319
RWRMT
MONTANA HOURLY WEATHER ROUNDUP
NATIONAL WEATHER SERVICE GREAT FALLS MT
719 AM MDT THU SEP 18 2014

NOTE: "FAIR" INDICATES FEW OR NO CLOUDS BELOW 12000 FEET WITH NO
SIGNIFICANT WEATHER AND/OR OBSTRUCTIONS TO VISIBILITY.

* THESE STATIONS ARE NOT UNDER NWS QUALITY CONTROL. THEY DO NOT
   REPORT WEATHER SUCH AS PRECIPITATION OR FOG.

MTZ001>007-043-181400-
WEST OF THE DIVIDE
CITY           SKY/WX    TMP DP  RH WIND       PRES   REMARKS
KALISPELL      MOCLDY    50  46  86 CALM      29.70F
MISSOULA       CLOUDY    55  45  69 W6        29.76R
BUTTE          LGT RAIN  54  43  67 E9        29.96R
MULLAN PASS    CLOUDY    61  34  36 SW8       29.86S
* ESSEX        N/A       47  43  86 N/A        N/A
* LINCOLN      N/A       38  36  93 SE2        N/A
* LOOKOUT PASS N/A       59  42  53 S1         N/A
* POLSON       N/A       58  48  70 NE4        N/A
* RONAN APT    CLOUDY    55  50  83 N/A        N/A
* SEELEY LAKE  N/A       47  40  77 E4         N/A
* THOMP F APT  CLOUDY    56  46  69 N7         N/A
$$

MTZ008-052>055-181400-
SOUTHWEST MONTANA
CITY           SKY/WX    TMP DP  RH WIND       PRES   REMARKS
BOZEMAN        CLOUDY    61  48  62 S13       29.86R
DILLON         CLOUDY    55  48  77 SE12      29.93F
W YELLOWSTONE  CLOUDY    43  41  93 CALM      30.09R
* THREE FORKS  CLOUDY    54  30  40 N/A        N/A
* BOULDER HILL N/A       56  35  45 S11        N/A
* MONIDA PASS  N/A       57  46  67 SW9        N/A
* RAYNOLDS PAS N/A       59  37  44 SE16       N/A
* WHITEHALL    N/A       54  42  64 W5G10      N/A
* WISE RIVER   N/A       47  38  71 W4G11      N/A
$$

MTZ009>010-012-014-046-048-049-054-181400-
EAST SLOPES AND CENTRAL MONTANA
CITY           SKY/WX    TMP DP  RH WIND       PRES   REMARKS
CUT BANK       CLOUDY    54  45  72 N5        29.71S
GREAT FALLS    MOCLDY    61  43  52 S10       29.71F
HELENA         CLOUDY    52  45  77 CALM      29.80R
MALMSTROM AFB  MOCLDY    64  43  47 SW12      29.72F
* CONRAD       CLOUDY    54  50  86 N/A        N/A
* EAST GLACIER N/A       53  39  59 W3         N/A
* MONARCH      N/A       59  36  42 S9         N/A
* PENDROY      N/A       62  43  50 W4         N/A
* ROGERS PASS  N/A       58  36  44 NW5        N/A
* SAINT MARY   N/A       42  40  93 S3         N/A
* SWEET GRASS  N/A       67  40  37 W12        N/A
$$

MTZ011-013-016-021-035-040-045-047-050-051-181400-
NORTH CENTRAL MONTANA
CITY           SKY/WX    TMP DP  RH WIND       PRES   REMARKS
HAVRE          MOCLDY    52  48  86 W9        29.66R
LEWISTOWN      MOCLDY    55  43  64 E9        29.77F
* CHINOOK      CLOUDY    48  48 100 CALM      29.65S
* FORT BENTON  MOCLDY    55  50  83 CALM      29.69S
* CHESTER      N/A       50  46  86 N1         N/A
* DENTON       N/A       62  44  52 S11        N/A
* JUDITH GAP   N/A       55  49  80 SE6        N/A
* LOMA         N/A       55  50  83 NE3        N/A
$$

MTZ017>020-022>027-061-062-181400-
NORTHEAST MONTANA
CITY           SKY/WX    TMP DP  RH WIND       PRES   REMARKS
GLASGOW        PTCLDY    54  48  80 E13       29.67S
GLENDIVE       CLEAR     50  48  93 SW5       29.76F
JORDAN         PTCLDY    55  50  83 W5        29.70S
SIDNEY         CLEAR     52  48  86 S6        29.76F
WOLF POINT     PTCLDY    50  46  86 E7        29.70F
* BEAVER HILL  N/A       57  51  80 SE20       N/A
* CIRCLE       N/A       59  52  78 S5         N/A
* LINDSAY DVD  N/A       51  49  93 SE2        N/A
* NAVAJO       N/A       50  47  89 SE3        N/A
* SACO         N/A       54  50  86 E3         N/A
$$

MTZ028>042-056>058-181400-
SOUTHCENTRAL AND SOUTHEAST MONTANA
CITY           SKY/WX    TMP DP  RH WIND       PRES   REMARKS
BAKER          CLEAR     54  50  86 SE7       29.81S
BILLINGS       CLOUDY    64  46  52 SW15      29.79S
LIVINGSTON     LGT RAIN  57  46  67 W6        29.85F
MILES CITY     CLEAR     55  52  90 SE9       29.75S
* LAUREL APT   CLOUDY    68  43  40 SW10       N/A
* ROUNDUP APT  MOCLDY    54  48  80 N/A        N/A
* ALZADA       N/A       52  48  86 E3         N/A
* HYSHAM       N/A       65  42  43 W7         N/A
* LAME DEER    N/A       64  42  45 S6         N/A
* REED POINT   N/A       54  48  80 SW4G10     N/A
* ROSCOE HILL  N/A       66  34  31 W3G10      N/A
$$

REGIONAL REPORTS...DAKOTAS
CITY           SKY/WX    TMP DP  RH WIND       PRES   REMARKS
WILLISTON      CLEAR     55  46  72 S5        29.76F
DICKINSON      CLEAR     52  46  80 S16       29.81F
BEACH          N/A       50  50 100 S12       29.79F
CROSBY         CLEAR     54  50  86 S13G18    29.74F
TIOGA          CLEAR     50  50 100 S14       29.82S
WATFORD CITY   CLEAR     52  46  80 SE12      29.76F
BISMARCK       CLEAR     48  46  93 E9        29.91S
GRAND FORKS    PTCLDY    43  41  93 SE7       29.99S
FARGO          FOG       52  48  86 SE8       30.00R
BUFFALO SD     CLEAR     52  48  86 SE9       29.79F
RAPID CITY     FOG       48  46  93 CALM      29.87S
$$

REGIONAL REPORTS...WYOMING/IDAHO/WASHINGTON
CITY           SKY/WX    TMP DP  RH WIND       PRES   REMARKS
GILLETTE       PTCLDY    63  46  54 SW8       29.89F
SHERIDAN       PTCLDY    54  46  74 CALM      29.84S
CODY           CLOUDY   N/A N/A N/A N/A        N/A
YELLOWSTONE LA CLOUDY    45  41  86 CALM      30.17R
SALMON         CLOUDY    54  46  74 CALM      29.87S
MULLAN PASS    CLOUDY    61  34  36 SW8       29.86S
SAND POINT     CLOUDY    52  52 100 CALM      29.67S
SPOKANE        CLOUDY    63  37  38 S8        29.67S
$$

REGIONAL REPORTS...ALBERTA
CITY           SKY/WX    TMP DP  RH WIND       PRES   REMARKS
CALGARY        CLOUDY    57  45  64 SW3       29.62F
LETHBRIDGE     MOCLDY    55  46  72 VRB2      29.64R
MEDICINE HAT   PTCLDY    57  52  83 SW5       29.59S
EDMONTON       LGT RAIN  54  48  80 S6        29.58R
WATERTON GATE  N/A       48  43  83 S2         N/A
CARDSTON       N/A       59  45  60 SW8        N/A
$$

REGIONAL REPORTS...SASKATCHEWAN
CITY           SKY/WX    TMP DP  RH WIND       PRES   REMARKS
SWIFT CURRENT  CLEAR     57  48  72 S15       29.60F
MOOSE JAW      PTCLDY    46  46 100 SE8       29.65F
REGINA         FAIR      46  46 100 SE16      29.69F
VAL MARIE      N/A       46  45  96 E5         N/A
ASSINIBOIA     N/A       50  46  86 SE8        N/A
CORONACH       N/A       45  43  93 SE5        N/A

$$




USA.gov is the U.S. government's official web portal to all federal, state and local government web resources and services.